FENGYUN 1C DEB, 37044

Orbit data source: Space-Track

FENGYUN 1C DEB, 37044 is space debris in SSO originally from a launch on Mon, 10 May 1999 UTC launched from the Taiyaun Space Center, China (TSC). Fengyun 1C debris stems from the Chinese weather satellite Fengyun-1C, which was intentionally destroyed by a Chinese anti-satellite missile in 2007. This event dramatically increased the amount of space debris, with thousands of trackable fragments posing hazards to satellites and human spaceflight. The Fengyun 1C debris cloud has become a focal point in discussions about space sustainability and the need for international regulations to prevent the creation of new debris.

Loading next visibility...
Identifier
37044, 1999-025EEC
Orbit
SSO
Country
Flag of CNCN / PRC
Related business
Manufacturer
Unknown
Mission
Spacecraft
Bus & Motor
Unknown
Mass
Unknown
Launch date (UTC)
1999-05-10 (26 years ago)
Launch vehicle
Unknown
Launch site
Taiyaun Space Center, China (TSC)
Object type
Payload
Rocket body
Debris
Shape & HBR
Unknown shape, 0.1 m
Radar Cross Section
Small (<0.1 m²)

Expand to show TLE details & history
Last TLE update: 1 day ago

TLE from 1 day ago
0 FENGYUN 1C DEB
1 37044U 99025EEC 25305.11525092  .00009853  00000-0  44806-2 0  9992
2 37044  98.9602  53.8349 0509219 271.2455  83.0427 13.69913344832884
Epoch: 2025-11-01T02:45Z
TLE epoch observation values (Epoch: 2025-11-01T02:45:57.679Z)
Latitude
-0.0001°
Longitude
-28.30538°
Altitude
976.208 km
Speed
7.377 km/s
True Right ascension
03h 35m 20s
True Declination
0° 00' 00"
Sunlit
Object was in full shadow at epoch
Visualization orbit readout
Latitude
Unknown
Longitude
Unknown
Altitude
Unknown
Speed
Unknown
Apparent Right ascension
Unknown
Apparent Declination
Unknown
Sunlit
N/A
Visualization observer readout
Local Sidereal Time
05:20:08
Azimuth
Unknown
Elevation
Unknown
Doppler factor
Unknown
Orbital elements
Apogee altitude
1,372.671 km
Perigee altitude
621.548 km
Semi-major axis
7,375.246 km
Eccentricity
0.05092
Inclination
98.9602°
RAAN
53.8349°
Arg. of periapsis
271.2455°
True anomaly
88.86987°
Mean anomaly
83.0427°
Eccentric anomaly
85.95303°
Mean motion
3.42672 °/min
Orbital period
105.06 mins
BSTAR
0.0044806
Loading maneuver chart data...
Computing Atmospheric mass density...

Documentation

Showing up to 5 results
|